Change the Weather History Date:

Sunday, January 11, 2015

  Actual Average Record
Temperature  
Mean Temperature 22 °F -  
Max Temperature 24 °F 31 °F 51 °F (2012)
Min Temperature 20 °F 24 °F 1 °F (2009)
Degree Days  
Heating Degree Days 43    
Moisture  
Dew Point 18 °F    
Average Humidity 82    
Maximum Humidity 91    
Minimum Humidity 72    
Precipitation  
Precipitation 0.00 in - - ()
Sea Level Pressure  
Sea Level Pressure 30.20 in    
Wind  
Wind Speed 8 mph (WSW)    
Max Wind Speed 16 mph    
Max Gust Speed 21 mph    
Visibility 8 miles    
Events Snow    
Averages and records for this station are not official NWS values.
T = Trace of Precipitation, MM = Missing Value Source: NWS Daily Summary

Daily Weather History Graph

Daily Weather History Graph

Search for Another Location

Airport or City:

Trip Planner

Search our weather history database for the weather conditions in past years. The results will help you decide how hot, cold, wet, or windy it might be!

Date:

Astronomy

Jan. 11, 2015 Rise Set
Actual Time 8:18 AM EST 5:19 PM EST
Civil Twilight 7:45 AM EST 5:52 PM EST
Nautical Twilight 7:08 AM EST 6:29 PM EST
Astronomical Twilight 6:33 AM EST 7:05 PM EST
Moon No Moon Rise 11:15 AM EST (1/11)
Length of Visible Light 10h 07m
Length of Day
9h 00m
Waning Gibbous, 66% of the Moon is Illuminated
Jan 11
Waning Gibbous
Jan 13
Last Quarter
Jan 20
New
Jan 26
First Quarter
Feb 3
Full

Hourly Weather History & Observations

Time (EST) Temp. Windchill Dew Point Humidity Pressure Visibility Wind Dir Wind Speed Gust Speed Precip Events Conditions
12:14 AM 22.8 °F 11.5 °F 18.5 °F 83% 30.17 in 10.0 mi SW 11.5 mph 16.1 mph N/A Snow Light Snow
12:35 AM 23.0 °F 13.1 °F 17.6 °F 80% 30.17 in 10.0 mi SW 9.2 mph 20.7 mph N/A Snow Light Snow
12:54 AM 23.0 °F 13.9 °F 17.1 °F 78% 30.17 in 7.0 mi SW 8.1 mph 18.4 mph N/A Snow Light Snow
1:15 AM 23.0 °F 11.7 °F 16.7 °F 77% 30.17 in 7.0 mi WSW 11.5 mph 18.4 mph N/A Snow Light Snow
1:35 AM 23.0 °F 12.4 °F 16.2 °F 75% 30.17 in 10.0 mi West 10.4 mph 18.4 mph N/A Snow Light Snow
1:54 AM 23.0 °F 11.7 °F 16.3 °F 76% 30.17 in 7.0 mi West 11.5 mph 18.4 mph N/A Snow Light Snow
2:15 AM 22.8 °F 9.4 °F 16.3 °F 76% 30.17 in 7.0 mi West 16.1 mph 19.6 mph N/A Snow Light Snow
2:35 AM 22.8 °F 9.9 °F 16.5 °F 77% 30.17 in 7.0 mi West 15.0 mph - N/A Snow Light Snow
2:54 AM 23.0 °F 13.1 °F 16.5 °F 76% 30.17 in 7.0 mi West 9.2 mph - N/A Snow Light Snow
3:15 AM 23.0 °F 13.9 °F 16.5 °F 76% 30.18 in 10.0 mi WSW 8.1 mph - N/A Snow Light Snow
3:34 AM 21.0 °F 14.6 °F 16.7 °F 83% 30.19 in 5.0 mi SSW 4.6 mph - N/A Snow Light Snow
3:54 AM 20.5 °F 14.0 °F 17.2 °F 87% 30.19 in 5.0 mi South 4.6 mph - N/A Snow Light Snow
4:15 AM 20.3 °F 12.5 °F 17.4 °F 89% 30.18 in 7.0 mi South 5.8 mph - N/A Snow Light Snow
4:34 AM 20.3 °F 12.5 °F 17.4 °F 89% 30.18 in 7.0 mi South 5.8 mph - N/A Snow Light Snow
4:54 AM 20.3 °F 12.5 °F 17.6 °F 89% 30.17 in 5.0 mi South 5.8 mph - N/A Snow Light Snow
5:15 AM 20.3 °F 15.4 °F 17.6 °F 89% 30.17 in 10.0 mi South 3.5 mph - N/A   Overcast
5:34 AM 20.3 °F 15.4 °F 17.6 °F 89% 30.17 in 10.0 mi South 3.5 mph - N/A Snow Light Snow
5:55 AM 20.3 °F 15.4 °F 17.6 °F 89% 30.17 in 10.0 mi South 3.5 mph - N/A Snow Light Snow
6:15 AM 20.7 °F - 17.6 °F 88% 30.18 in 10.0 mi Calm Calm - N/A Snow Light Snow
6:34 AM 20.8 °F 11.2 °F 18.0 °F 89% 30.17 in 10.0 mi West 8.1 mph - N/A   Overcast
6:55 AM 22.6 °F 13.4 °F 17.6 °F 81% 30.18 in 10.0 mi West 8.1 mph - N/A Snow Light Snow
7:15 AM 22.6 °F 15.3 °F 17.1 °F 79% 30.18 in 10.0 mi West 5.8 mph 9.2 mph N/A   Overcast
7:34 AM 22.6 °F 16.5 °F 17.1 °F 79% 30.18 in 10.0 mi West 4.6 mph - N/A   Overcast
7:55 AM 21.4 °F 16.6 °F 16.7 °F 82% 30.17 in 10.0 mi SSE 3.5 mph - N/A   Overcast
8:15 AM 21.0 °F 13.4 °F 17.6 °F 87% 30.18 in 10.0 mi SSE 5.8 mph - N/A   Overcast
8:34 AM 21.2 °F 16.4 °F 18.1 °F 88% 30.17 in 10.0 mi SSE 3.5 mph - N/A   Overcast
8:55 AM 21.0 °F 16.2 °F 18.3 °F 89% 30.20 in 10.0 mi SSE 3.5 mph - N/A   Overcast
9:15 AM 20.7 °F 13.0 °F 18.1 °F 90% 30.21 in 10.0 mi SSE 5.8 mph - N/A   Overcast
9:34 AM 20.8 °F 13.2 °F 18.5 °F 91% 30.21 in 7.0 mi SSE 5.8 mph - N/A   Overcast
9:55 AM 21.0 °F 13.4 °F 18.5 °F 90% 30.21 in 7.0 mi SSE 5.8 mph - N/A Snow Light Snow
10:15 AM 21.2 °F 14.9 °F 18.5 °F 89% 30.22 in 7.0 mi SSE 4.6 mph - N/A Snow Light Snow
10:34 AM 21.7 °F - 19.0 °F 89% 30.22 in 5.0 mi Calm Calm - N/A Snow Light Snow
10:55 AM 22.3 °F - 19.2 °F 88% 30.22 in 5.0 mi Calm Calm - N/A Snow Light Snow
11:15 AM 24.3 °F 16.3 °F 19.4 °F 82% 30.22 in 10.0 mi WSW 6.9 mph - N/A   Overcast
11:34 AM 24.4 °F 14.9 °F 19.2 °F 81% 30.21 in 10.0 mi West 9.2 mph - N/A   Overcast
11:55 AM 24.6 °F 13.8 °F 19.2 °F 80% 30.20 in 10.0 mi West 11.5 mph - N/A   Overcast
12:14 PM 24.4 °F 15.6 °F 18.9 °F 79% 30.20 in 10.0 mi West 8.1 mph - N/A   Overcast
12:34 PM 24.3 °F 13.9 °F 18.7 °F 79% 30.19 in 10.0 mi West 10.4 mph - N/A   Overcast
12:55 PM 23.9 °F 15.0 °F 18.3 °F 79% 30.19 in 10.0 mi WSW 8.1 mph - N/A   Overcast
1:15 PM 23.9 °F 15.0 °F 18.3 °F 79% 30.19 in 10.0 mi West 8.1 mph - N/A   Overcast
1:34 PM 23.9 °F 14.2 °F 19.0 °F 82% 30.19 in 10.0 mi West 9.2 mph - N/A   Overcast
1:55 PM 23.9 °F 15.0 °F 19.0 °F 82% 30.19 in 10.0 mi West 8.1 mph - N/A   Overcast
2:15 PM 23.9 °F 15.0 °F 18.9 °F 81% 30.19 in 10.0 mi West 8.1 mph - N/A   Overcast
2:35 PM 23.9 °F 14.2 °F 18.7 °F 80% 30.20 in 10.0 mi West 9.2 mph - N/A   Overcast
2:55 PM 23.9 °F 15.8 °F 18.7 °F 80% 30.20 in 10.0 mi West 6.9 mph - N/A   Overcast
3:14 PM 23.9 °F 14.2 °F 18.5 °F 80% 30.21 in 10.0 mi WNW 9.2 mph - N/A   Overcast
3:35 PM 23.9 °F 14.2 °F 19.0 °F 82% 30.21 in 10.0 mi West 9.2 mph - N/A   Overcast
3:55 PM 23.7 °F 14.0 °F 18.7 °F 81% 30.21 in 10.0 mi West 9.2 mph - N/A   Overcast
4:14 PM 23.7 °F 14.7 °F 18.5 °F 80% 30.21 in 10.0 mi West 8.1 mph - N/A   Overcast
4:35 PM 23.7 °F 14.7 °F 18.5 °F 80% 30.21 in 10.0 mi West 8.1 mph - N/A   Overcast
4:55 PM 23.7 °F 14.0 °F 18.5 °F 80% 30.22 in 10.0 mi West 9.2 mph - N/A   Overcast
5:14 PM 23.5 °F 15.4 °F 18.3 °F 80% 30.22 in 10.0 mi West 6.9 mph - N/A   Overcast
5:35 PM 23.4 °F 16.2 °F 17.6 °F 79% 30.22 in 10.0 mi WNW 5.8 mph - N/A   Overcast
5:55 PM 23.0 °F 14.7 °F 17.2 °F 79% 30.23 in 10.0 mi WNW 6.9 mph - N/A   Overcast
6:14 PM 23.0 °F 15.8 °F 16.7 °F 77% 30.23 in 10.0 mi West 5.8 mph - N/A   Overcast
6:35 PM 23.4 °F 16.2 °F 17.1 °F 77% 30.22 in 10.0 mi WNW 5.8 mph - N/A   Overcast
6:55 PM 23.5 °F 16.4 °F 17.1 °F 76% 30.23 in 10.0 mi WNW 5.8 mph - N/A   Overcast
7:14 PM 23.5 °F 16.4 °F 16.5 °F 75% 30.23 in 10.0 mi WNW 5.8 mph - N/A   Overcast
7:35 PM 23.5 °F 15.4 °F 15.8 °F 72% 30.23 in 7.0 mi WNW 6.9 mph - N/A   Overcast
7:55 PM 23.0 °F 13.9 °F 15.8 °F 74% 30.24 in 7.0 mi WNW 8.1 mph - N/A   Overcast
8:14 PM 22.6 °F 15.3 °F 15.8 °F 75% 30.24 in 5.0 mi West 5.8 mph - N/A Snow Light Snow
8:35 PM 22.1 °F 14.7 °F 16.3 °F 79% 30.25 in 2.0 mi WNW 5.8 mph - N/A Snow Light Snow
8:55 PM 21.6 °F 16.8 °F 16.5 °F 81% 30.25 in 4.0 mi WNW 3.5 mph - N/A Snow Light Snow
9:14 PM 22.1 °F 17.4 °F 17.6 °F 83% 30.25 in 2.5 mi NNW 3.5 mph - N/A Snow Light Snow
9:35 PM 21.9 °F 15.7 °F 17.6 °F 83% 30.25 in 4.0 mi WNW 4.6 mph - N/A Snow Light Snow
9:55 PM 22.1 °F 13.7 °F 18.1 °F 85% 30.25 in 4.0 mi NW 6.9 mph - N/A Snow Light Snow
10:14 PM 22.1 °F 15.9 °F 17.6 °F 83% 30.25 in 5.0 mi WNW 4.6 mph - N/A Snow Light Snow
10:35 PM 21.7 °F 12.3 °F 17.4 °F 83% 30.25 in 7.0 mi WNW 8.1 mph - N/A Snow Light Snow
10:55 PM 21.6 °F 12.1 °F 16.3 °F 80% 30.25 in 10.0 mi West 8.1 mph - N/A   Overcast
11:14 PM 21.9 °F 12.5 °F 16.0 °F 78% 30.25 in 10.0 mi WNW 8.1 mph - N/A   Overcast
11:35 PM 21.9 °F 13.4 °F 17.1 °F 82% 30.25 in 7.0 mi WNW 6.9 mph - N/A Snow Light Snow
11:55 PM 22.1 °F 12.0 °F 18.9 °F 87% 30.24 in 2.5 mi NW 9.2 mph - N/A Snow Light Snow